Regional Weather Roundup
Issued by NWS

Home | Current Version | Previous Version | Graphics & Text | Print | Product List | Glossary On
Versions: 1 2 3 4 5 6 7 8 9 10 11 12 13 14 15 16 17 18 19 20 21 22 23 24 25 26 27 28 29 30 31 32 33 34 35 36 37 38 39 40 41 42 43 44 45 46 47 48 49 50
000
ASUS43 KMPX 202310
RWRMN
WEATHER ROUNDUP FOR MINNESOTA
NATIONAL WEATHER SERVICE TWIN CITIES/CHANHASSEN MN
600 PM CDT SUN APR 20 2014


NOTE: "FAIR" INDICATES FEW OR NO CLOUDS BELOW 12,000 FEET WITH NO
SIGNIFICANT WEATHER AND/OR OBSTRUCTIONS TO VISIBILITY. N/A MEANS
CURRENT SKY AND/OR WEATHER CONDITIONS ARE NOT AVAILABLE.

MNZ060>063-068>070-210000-
   Twin Cities Metro

CITY           SKY/WX    TMP DP  RH WIND       PRES   REMARKS
TWIN CITIES    MOSUNNY   72  45  37 S6        29.95S
ST PAUL        SUNNY     73  47  39 S6        29.95S
CRYSTAL        SUNNY     75  34  22 CALM      29.93F
BLAINE         SUNNY     75  34  22 CALM      29.95S
EDEN PRAIRIE   SUNNY     74  43  32 SE6       29.94S
LAKEVILLE      SUNNY     70  54  56 SE5       29.95F
SOUTH ST PAUL  SUNNY     74  46  36 SE3       29.95S
LAKE ELMO      PTSUNNY   72  50  46 SE3       29.97S
$$
MNZ001>005-007-008-013>017-022>024-027-028-210000-
   Northwest Minnesota

CITY           SKY/WX    TMP DP  RH WIND       PRES   REMARKS
BEMIDJI        MOSUNNY   69  26  20 W7        29.94S
HALLOCK        CLOUDY    64  48  55 SE12      29.87F
ROSEAU         PTSUNNY   63  43  48 S9        29.93F HAZE
WARROAD        PTSUNNY   50  39  66 E8        29.96F
THIEF RVR FALL PTSUNNY   66  37  34 S10       29.92F
CROOKSTON      PTSUNNY   70  37  30 S9        29.90F
FOSSTON        PTSUNNY   70  34  26 S9        29.94F
DETROIT LAKES  MOSUNNY   70  30  23 SW6       29.95S
MOORHEAD       MOSUNNY   73   7   7 S8        29.91F
PARK RAPIDS    SUNNY     70  25  18 W7        29.94F
$$
MNZ006-009>011-018-025>026-210000-
   North Central Minnesota

CITY           SKY/WX    TMP DP  RH WIND       PRES   REMARKS
BAUDETTE       CLOUDY    62  38  40 E5        29.95F
FLAG ISLAND    CLOUDY    50  34  53 SE3       29.95S
INTL FALLS     MOSUNNY   59  35  40 NE6       29.97F
WASKISH        PTSUNNY   64  36  34 CALM      29.96F
BIG FORK       MOSUNNY   66  30  26 S5        29.97F
LONGVILLE      SUNNY     72  27  18 W3        29.96F
GRAND RAPIDS   SUNNY     66  30  26 NW7       29.98F
CRANE LAKE     SUNNY     61  32  33 N3        30.00F
ORR            SUNNY     63  27  25 CALM      29.96F
COOK           SUNNY     64  30  27 CALM      29.98F
$$
MNZ012-019>021-037-210000-
   Northeast Minnesota

CITY           SKY/WX    TMP DP  RH WIND       PRES   REMARKS
DULUTH         SUNNY     65  28  24 N6        29.99S
ELY            MOSUNNY   61  28  29 W7        29.99F
HIBBING        SUNNY     67  29  24 NW7       29.98S
EVELETH        SUNNY     63  28  27 CALM      30.00S
DULUTH HARBOR  SUNNY     45  37  76 CALM      30.00S
TWO HARBORS    SUNNY     61  37  41 CALM      29.98R
SILVER BAY     SUNNY     55  39  54 S3        29.98R
GRAND MARAIS     N/A     43  35  73 W10       30.00S
G MARAIS ARPRT SUNNY     57  27  30 W7        30.01S
$$
MNZ029>031-032-039>041-046>048-054>057-064-210000-
   West Central Minnesota

CITY           SKY/WX    TMP DP  RH WIND       PRES   REMARKS
FERGUS FALLS   SUNNY     73  23  15 S7        29.89S
WHEATON        SUNNY     77  36  22 S7        29.94S
MORRIS         MOSUNNY   75  34  22 SE7       29.93S
ALEXANDRIA     PTSUNNY   71  33  24 S6        29.96S
ELBOW LAKE     FAIR      72  32  23 S5        29.93S
WADENA         SUNNY     72  36  26 SE3       29.94F
GLENWOOD       MOSUNNY   73  30  20 S5        29.96S
APPLETON       SUNNY     75  30  19 SE8       29.92F
BENSON         SUNNY     73  34  23 S8        29.93F
ORTONVILLE     SUNNY     73  30  20 SE8       29.92F
MADISON        SUNNY     77  34  20 SE10      29.92F
WILLMAR        FAIR      72  36  26 E7        29.95F
$$
MNZ033>034-036-042>043-049>051-058-059-210000-
   Central Minnesota

CITY           SKY/WX    TMP DP  RH WIND       PRES   REMARKS
ST CLOUD       SUNNY     74  29  19 CALM      29.95F
SAUK CENTRE    FAIR      71  35  27 E3        29.96S
PAYNESVILLE    MOSUNNY   71  31  23 NE3       29.96S
AITKIN         SUNNY     72  19  14 SE5       29.96S
PINE RIVER     SUNNY     70  37  30 SE8       29.99S
BRAINERD       SUNNY     74  30  19 E6        29.96S
STAPLES        SUNNY     70  27  19 S3        29.95F
LONG PRAIRIE   FAIR      70  32  24 CALM      29.96S
LITTLE FALLS   SUNNY     70  27  19 CALM      29.96F
LITCHFIELD     SUNNY     73  36  25 E6        29.95F
BUFFALO        SUNNY     73  34  24 N6        29.96S
MAPLE LAKE     SUNNY     73  37  26 E3        29.96F
$$
MNZ037-044-045-052-053-210000-
   East Central Minnesota

CITY           SKY/WX    TMP DP  RH WIND       PRES   REMARKS
PRINCETON      SUNNY     72  34  25 N5        29.96F
MORA           SUNNY     68  34  28 CALM      29.99S
CAMBRIDGE      SUNNY     72  46  40 NE5       29.95S
RUSH CITY      SUNNY     68  32  25 CALM      29.98S
MOOSE LAKE     SUNNY     70  32  24 NW5       29.96S
HINCKLEY       FAIR      70  36  28 CALM      29.97F
CLOQUET        SUNNY     66  21  18 CALM      29.98F
MCGREGOR       SUNNY     68  30  24 CALM      29.98S
$$
MNZ071>073-080-081-089-090-097-098-210000-
   Southwest Minnesota

CITY           SKY/WX    TMP DP  RH WIND       PRES   REMARKS
MONTEVIDEO     SUNNY     75  37  25 SE10      29.93S
GRANITE FALLS  SUNNY     74  36  25 NE9       29.93F
CANBY          SUNNY     74  36  25 E8        29.92F
MARSHALL       SUNNY     75  36  23 SE9       29.91S
REDWOOD FALLS  SUNNY     76  35  22 E8        29.91F
OLIVIA         SUNNY     73  37  27 E6        29.92F
PIPESTONE      SUNNY     77  41  27 E9        29.90F
WINDOM         SUNNY     77  48  36 E7        29.91F
WORTHINGTON    MOSUNNY   77  48  36 S12       29.92F
JACKSON        MOSUNNY   77  50  38 S6        29.91F
TRACY          SUNNY     75  44  32 E8        29.91F
SLAYTON        SUNNY     75  44  32 E7        29.92S
$$
MNZ065>067-074>077-082>085-091>093-210000-
   South Central Minnesota

CITY           SKY/WX    TMP DP  RH WIND       PRES   REMARKS
MANKATO        SUNNY     72  54  53 E6        29.94F
NEW ULM        SUNNY     73  54  49 E9        29.92F
ST JAMES       SUNNY     75  54  46 E9        29.92S
FAIRMONT       MOSUNNY   75  52  43 SE8       29.93S
GLENCOE        SUNNY     75  36  24 SE8       29.94S
FARIBAULT      SUNNY     73  50  43 S5        29.97S
OWATONNA       MOSUNNY   70  55  60 CALM      29.96F
WASECA         MOSUNNY   73  59  60 SE6       29.97S
ALBERT LEA     MOSUNNY   70  57  64 E9        29.95F
$$
MNZ078>079-086>088-094>096-210000-
   Southeast Minnesota

CITY           SKY/WX    TMP DP  RH WIND       PRES   REMARKS
ROCHESTER      MOSUNNY   66  56  70 CALM      29.98F
RED WING       MOSUNNY   68  54  60 SE9       29.96S
STANTON        CLOUDY    71  54  55 S6        29.95S
DODGE CENTER   MOSUNNY   70  55  60 S5        29.97F
WINONA           N/A    N/A N/A N/A MISG        N/A
AUSTIN         LGT RAIN  64  57  77 E3        29.97S
PRESTON        PTSUNNY   65  55  69 CALM      29.99F
$$
ABBREVIATIONS USED IN REMARKS
   TC - TEMPERATURES IN CELSIUS
  WCI - WIND CHILL INDEX
   HX - HEAT INDEX
  VSB - VISIBILITY
$$



USA.gov is the U.S. government's official web portal to all federal, state and local government web resources and services.